Terminal Aerodrome Forecast
Issued by NWS

Home | Current Version | Previous Version | Graphics & Text | Print | Product List | Glossary On
Versions: 1 2 3 4 5 6 7 8 9 10 11 12 13 14 15 16
045
FTUS43 KMPX 232215 AAB
TAFAXN
TAF AMD
KAXN 232215Z 2322/2418 03013KT P6SM BKN018
     FM240600 02016G26KT P6SM OVC070=

USA.gov is the U.S. government's official web portal to all federal, state and local government web resources and services.